Location: Windsor
(43.2292°N, 89.3015°W)
Time: 15:12:39
(UTC+00:00)

DIWATA 2B (PO-101) - Pass Details

Date: 04 July 2022
Orbit: 583 x 599 km, 98.0° (Epoch: 19 August)

Event Time Altitude Azimuth Distance (km) Brightness Sun altitude
Exits shadow 08:30:16 28° 229° (SW) 1,145 ? -15.6°
Maximum altitude 08:31:30 33° 263° (W) 1,013 ? -15.5°
Drops below altitude 10° 08:35:21 10° 328° (NNW) 1,948 ? -15.1°
Sets 08:37:42 0° 338° (NNW) 2,856 ? -14.8°
